Location: *
(40.4000°N, 15.1200°E)
Time: 04:59:34
(UTC+00:00)

Meteor 2-10 Rocket - Pass Details

Date: 09 April 2020
Orbit: 734 x 884 km, 81.2° (Epoch: 27 May)

Event Time Altitude Azimuth Distance (km) Brightness Sun altitude
Exits shadow 20:33:48 51° 354° (N) 989 4.2 -30.9°
Drops below altitude 10° 20:37:53 10° 7° (N) 2,402 6.5 -31.5°
Sets 20:40:20 0° 9° (N) 3,362 7.3 -31.8°
